This demonstration page uses our WeatherBlox Daily Observations layout. Learn more.

Left ArrowRight Arrow

Hourly Observations for July 3, 2022

Temp ( °F °C ) Dew Point ( °F °C ) Humidity (%) Winds ( mph kmh ) Pressure ( in mb ) Visibility ( mi km ) Precip ( " mm )
12:53 am 00:53 Clear 81 27.2 59 15 47 47 SE 8 13 29.80 1009 10 16 0.00 0.00
1:53 am 01:53 Clear 80 26.7 60 15.6 51 51 SE 12 19 29.81 1009 10 16 0.00 0.00
2:53 am 02:53 Clear 79 26.1 59 15 50 50 SE 14 22 29.80 1009 10 16 0.00 0.00
3:53 am 03:53 Clear 77 25 59 15 54 54 ESE 13 20 29.81 1010 10 16 0.00 0.00
4:53 am 04:53 Clear 76 24.4 59 15 56 56 SE 15 24 29.80 1009 10 16 0.00 0.00
5:53 am 05:53 Clear 75 23.9 59 15 58 58 ESE 16 26 29.81 1009 10 16 0.00 0.00
6:53 am 06:53 Sunny 74 23.3 60 15.6 62 62 SE 14 22 29.82 1010 10 16 0.00 0.00
7:53 am 07:53 Sunny 75 23.9 60 15.6 60 60 SE 15 24 29.84 1010 10 16 0.00 0.00
8:53 am 08:53 Sunny 78 25.6 61 16.1 56 56 SE 20 31 29.85 1011 10 16 0.00 0.00
9:53 am 09:53 Sunny 82 27.8 62 16.7 51 51 SSE 18 30 29.85 1011 10 16 0.00 0.00
10:53 am 10:53 Sunny 85 29.4 62 16.7 46 46 SSE 18 30 29.86 1011 10 16 0.00 0.00
11:53 am 11:53 Sunny 88 31.1 63 17.2 43 43 SSE 20 31 29.87 1012 10 16 0.00 0.00
12:53 pm 12:53 Sunny 91 32.8 60 15.6 35 35 SSE 15 24 29.85 1011 10 16 0.00 0.00
1:53 pm 13:53 Sunny 93 33.9 57 13.9 30 30 SE 17 28 29.83 1010 10 16 0.00 0.00
2:53 pm 14:53 Sunny 96 35.6 55 12.8 25 25 SE 20 31 29.80 1009 10 16 0.00 0.00
3:53 pm 15:53 Partly Cloudy 95 35 54 12.2 25 25 SE 16 26 29.79 1009 10 16 0.00 0.00
4:53 pm 16:53 Sunny 97 36.1 54 12.2 24 24 ESE 20 31 29.76 1008 10 16 0.00 0.00
5:53 pm 17:53 Mostly Sunny 95 35 54 12.2 25 25 SE 20 31 29.76 1008 10 16 0.00 0.00
6:53 pm 18:53 Sunny 94 34.4 53 11.7 25 25 SSE 14 22 29.76 1008 10 16 0.00 0.00
7:53 pm 19:53 Sunny 92 33.3 53 11.7 27 27 SE 20 31 29.77 1008 10 16 0.00 0.00
8:53 pm 20:53 Sunny 89 31.7 54 12.2 30 30 SE 20 31 29.78 1009 10 16 0.00 0.00
9:53 pm 21:53 Clear 85 29.4 58 14.4 40 40 SSE 23 37 29.81 1010 10 16 0.00 0.00
10:53 pm 22:53 Clear 83 28.3 60 15.6 46 46 SSE 21 33 29.85 1011 10 16 0.00 0.00
11:53 pm 23:53 Clear 81 27.2 61 16.1 51 51 SE 17 28 29.86 1011 10 16 0.00 0.00

Powered by AerisWeather